WAT2476 KSLC-KBMC

Flight info

Callsign WAT2476
Flight time 0h 17m
Altitude 6500
Route DCT
Aircraft C208/L-SDFGR/C

Departure

Time 2026-05-08 03:46
Airport Salt Lake City International Airport (KSLC)

Arrival

Time 2026-05-08 04:04
Airport Brigham City Regional Airport (KBMC)
Time Latitude Longitude Altitude Speed Heading
2026-05-08 03:37 40.77700 -111.95996 4230 ft 0 kts 270°
2026-05-08 03:42 40.77694 -111.96056 4230 ft 9 kts 233°
2026-05-08 03:43 40.77616 -111.96065 4230 ft 17 kts 179°
2026-05-08 03:43 40.77479 -111.96064 4230 ft 20 kts 180°
2026-05-08 03:43 40.77346 -111.96065 4230 ft 14 kts 180°
2026-05-08 03:43 40.77276 -111.96075 4230 ft 6 kts 234°
2026-05-08 03:44 40.77274 -111.96089 4230 ft 0 kts 269°
2026-05-08 03:44 40.77274 -111.96112 4230 ft 8 kts 270°
2026-05-08 03:44 40.77304 -111.96198 4230 ft 11 kts 324°
2026-05-08 03:45 40.77345 -111.96209 4230 ft 0 kts
2026-05-08 03:45 40.77507 -111.96205 4232 ft 63 kts
2026-05-08 03:45 40.78146 -111.96209 4248 ft 112 kts 359°
2026-05-08 03:45 40.79013 -111.96243 4373 ft 133 kts
2026-05-08 03:46 40.79972 -111.96237 4580 ft 140 kts
2026-05-08 03:46 40.80895 -111.95870 4784 ft 144 kts 43°
2026-05-08 03:46 40.81226 -111.94661 4997 ft 145 kts 92°
2026-05-08 03:46 40.81486 -111.93404 5198 ft 147 kts 49°
2026-05-08 03:47 40.82275 -111.92543 5409 ft 148 kts 36°
2026-05-08 03:47 40.83175 -111.91841 5500 ft 156 kts 24°
2026-05-08 03:47 40.84200 -111.91265 5510 ft 164 kts 23°
2026-05-08 03:47 40.85276 -111.90702 5510 ft 168 kts 19°
2026-05-08 03:48 40.86405 -111.90265 5511 ft 170 kts 15°
2026-05-08 03:48 40.87556 -111.89897 5512 ft 170 kts 10°
2026-05-08 03:48 40.88719 -111.89716 5511 ft 171 kts
2026-05-08 03:48 40.89910 -111.89604 5511 ft 171 kts
2026-05-08 03:49 40.91100 -111.89501 5510 ft 171 kts
2026-05-08 03:49 40.91892 -111.89543 5508 ft 172 kts 355°
2026-05-08 03:49 40.93488 -111.89727 5509 ft 172 kts 355°
2026-05-08 03:49 40.94681 -111.89865 5509 ft 172 kts 355°
2026-05-08 03:50 40.95872 -111.89999 5509 ft 171 kts 355°
2026-05-08 03:50 40.97060 -111.90126 5509 ft 171 kts 353°
2026-05-08 03:50 40.98208 -111.90455 5510 ft 171 kts 344°
2026-05-08 03:50 40.99363 -111.90865 5510 ft 172 kts 344°
2026-05-08 03:51 41.00536 -111.91212 5511 ft 174 kts 351°
2026-05-08 03:51 41.01746 -111.91340 5519 ft 174 kts 357°
2026-05-08 03:51 41.02957 -111.91347 5523 ft 175 kts
2026-05-08 03:51 41.04171 -111.91283 5523 ft 175 kts
2026-05-08 03:52 41.05387 -111.91232 5523 ft 175 kts
2026-05-08 03:52 41.06600 -111.91251 5522 ft 175 kts 356°
2026-05-08 03:52 41.07817 -111.91340 5522 ft 175 kts 356°
2026-05-08 03:52 41.09038 -111.91430 5522 ft 175 kts 356°
2026-05-08 03:53 41.10255 -111.91519 5523 ft 175 kts 356°
2026-05-08 03:53 41.11476 -111.91609 5522 ft 176 kts 356°
2026-05-08 03:53 41.12677 -111.91817 5515 ft 173 kts 339°
2026-05-08 03:53 41.13734 -111.92527 5521 ft 172 kts 332°
2026-05-08 03:54 41.14733 -111.93398 5518 ft 172 kts 320°
2026-05-08 03:54 41.15628 -111.94458 5520 ft 173 kts 316°
2026-05-08 03:54 41.16499 -111.95561 5520 ft 173 kts 314°
2026-05-08 03:54 41.17419 -111.96575 5517 ft 173 kts 332°
2026-05-08 03:55 41.18565 -111.97067 5516 ft 174 kts 352°
2026-05-08 03:55 41.19774 -111.96921 5520 ft 175 kts 11°
2026-05-08 03:55 41.20981 -111.96651 5513 ft 177 kts 10°
2026-05-08 03:55 41.22205 -111.96453 5507 ft 177 kts
2026-05-08 03:56 41.23435 -111.96350 5507 ft 177 kts
2026-05-08 03:56 41.24656 -111.96477 5500 ft 177 kts 348°
2026-05-08 03:56 41.25826 -111.96997 5497 ft 177 kts 336°
2026-05-08 03:56 41.26911 -111.97775 5495 ft 177 kts 329°
2026-05-08 03:57 41.27963 -111.98631 5495 ft 178 kts 328°
2026-05-08 03:57 41.29002 -111.99480 5495 ft 177 kts 328°
2026-05-08 03:57 41.30054 -112.00342 5494 ft 178 kts 328°
2026-05-08 03:57 41.31105 -112.01202 5503 ft 177 kts 328°
2026-05-08 03:58 41.32157 -112.02063 5503 ft 178 kts 328°
2026-05-08 03:58 41.33209 -112.02925 5503 ft 178 kts 328°
2026-05-08 03:58 41.34289 -112.03687 5501 ft 174 kts 335°
2026-05-08 03:58 41.35379 -112.04356 5497 ft 171 kts 336°
2026-05-08 03:59 41.36481 -112.04939 5494 ft 170 kts 339°
2026-05-08 03:59 41.37582 -112.05493 5503 ft 168 kts 341°
2026-05-08 03:59 41.38706 -112.05887 5503 ft 167 kts 347°
2026-05-08 03:59 41.39850 -112.06053 5502 ft 165 kts
2026-05-08 04:00 41.40998 -112.05992 5503 ft 165 kts
2026-05-08 04:00 41.42135 -112.06039 5502 ft 165 kts 358°
2026-05-08 04:00 41.43283 -112.06100 5504 ft 166 kts 359°
2026-05-08 04:00 41.44438 -112.06120 5507 ft 167 kts
2026-05-08 04:01 41.45609 -112.06073 5444 ft 168 kts
2026-05-08 04:01 41.46783 -112.06103 5314 ft 168 kts 359°
2026-05-08 04:01 41.47934 -112.06120 5315 ft 163 kts
2026-05-08 04:01 41.49045 -112.06115 5100 ft 157 kts 359°
2026-05-08 04:02 41.50085 -112.06157 5062 ft 140 kts 359°
2026-05-08 04:02 41.51034 -112.06160 4905 ft 134 kts
2026-05-08 04:02 41.51945 -112.06184 4732 ft 130 kts 359°
2026-05-08 04:02 41.52847 -112.06204 4535 ft 129 kts
2026-05-08 04:03 41.53731 -112.06206 4372 ft 120 kts
2026-05-08 04:03 41.55125 -112.06222 4237 ft 81 kts 359°
2026-05-08 04:03 41.55585 -112.06229 4240 ft 50 kts 359°
2026-05-08 04:04 41.55814 -112.06235 4241 ft 19 kts 344°
2026-05-08 04:04 41.55838 -112.06339 4238 ft 10 kts 261°
2026-05-08 04:04 41.55774 -112.06376 4239 ft 17 kts 179°
2026-05-08 04:04 41.55600 -112.06376 4238 ft 29 kts 180°
2026-05-08 04:05 41.55404 -112.06373 4239 ft 27 kts 179°
2026-05-08 04:05 41.55223 -112.06372 4238 ft 26 kts 180°
2026-05-08 04:05 41.55046 -112.06369 4239 ft 24 kts 179°
2026-05-08 04:05 41.54883 -112.06368 4239 ft 23 kts 180°
2026-05-08 04:06 41.54722 -112.06366 4238 ft 21 kts 181°
2026-05-08 04:06 41.54604 -112.06363 4240 ft 15 kts 178°
2026-05-08 04:06 41.54527 -112.06387 4239 ft 10 kts 246°
2026-05-08 04:06 41.54564 -112.06434 4238 ft 10 kts
2026-05-08 04:07 41.54604 -112.06433 4239 ft 0 kts